Location: D�rnast
(49.6426°N, 11.9755°E)
Time: 20:26:33
(UTC+00:00)

PSLV R/B - Pass Details

Date: 24 January 2021
Orbit: 567 x 598 km, 98.2° (Epoch: 02 March)

Event Time Altitude Azimuth Distance (km) Brightness Sun altitude
Exits shadow 18:05:31 18° 11° (N) 1,519 5.9 -21.0°
Maximum altitude 18:08:41 79° 287° (WNW) 617 4.0 -21.5°
Drops below altitude 10° 18:12:53 10° 200° (SSW) 1,933 6.9 -22.2°
Sets 18:15:02 0° 199° (SSW) 2,828 7.7 -22.5°
